Regional Weather Roundup
Issued by NWS Sioux Falls, SD

Home | Current Version | Previous Version | Graphics & Text | Print | Product List | Glossary Off
Versions: 1 2 3 4 5 6 7 8 9 10 11 12 13 14 15 16 17 18 19 20 21 22 23 24 25 26 27 28 29 30 31 32 33 34 35 36 37 38 39 40 41 42 43 44 45 46 47 48 49 50

000
ASUS43 KFSD 141802
RWRFSD

WEATHER ROUNDUP FOR SE SOUTH DAKOTA/SW MINNESOTA/NW IOWA
NATIONAL WEATHER SERVICE SIOUX FALLS SD
1200 PM CST THU DEC 14 2017

NOTE: "FAIR" INDICATES FEW OR NO CLOUDS BELOW 12,000 FEET WITH NO
SIGNIFICANT WEATHER AND OR OBSTRUCTIONS TO VISIBILITY.


SDZ038>040-050-052>070-141900-
SOUTHEAST SOUTH DAKOTA

CITY           SKY/WX    TMP DP  RH WIND       PRES   REMARKS
BROOKINGS      MIX PCPN  31  27  85 N8        30.02F WCI  23
CHAMBERLAIN    CLOUDY    36  35  97 NW12G21   30.09S
6HR MIN TEMP:  30; 6HR MAX TEMP:  37;

HURON          CLOUDY    34  29  82 NW14      30.06S WCI  25
6HR MIN TEMP:  26; 6HR MAX TEMP:  34; 6HR PCP: TRACE;

MADISON        CLOUDY    32  32 100 NW7       30.02F WCI  26
MITCHELL       CLOUDY    36  28  73 W9        30.07F
6HR MIN TEMP:  25; 6HR MAX TEMP:  36; 6HR PCP: TRACE;

SIOUX FALLS    CLOUDY    35  27  72 NW7       30.04F WCI  29
6HR MIN TEMP:  28; 6HR MAX TEMP:  36; 6HR PCP: TRACE;

WINNER         CLOUDY    36  33  89 NW22G29   30.11R
YANKTON        CLOUDY    36  25  64 NW9       30.07S
$$

MNZ071-072-080-081-089-090-097-098-141900-
SOUTHWEST MINNESOTA

CITY           SKY/WX    TMP DP  RH WIND       PRES   REMARKS
FAIRMONT       CLOUDY    24  18  77 NW8       30.05S WCI  15
JACKSON        CLOUDY    28  21  74 MISG      30.03S
LUVERNE        CLOUDY    32  27  80 W7        30.04F WCI  26
MARSHALL       FLURRIES  27  22  81 NW9       30.05F WCI  18
6HR MIN TEMP:  21; 6HR MAX TEMP:  28; 6HR PCP: TRACE;

MONTEVIDEO     CLOUDY    25  21  86 N8        30.06S WCI  16
PIPESTONE      CLOUDY    30  25  80 N8        30.01F WCI  23
REDWOOD FALLS  CLOUDY    25  52 100 MISG      30.05S
WINDOM           N/A     28  16  59 NW12G17   30.02F WCI  18
WORTHINGTON    CLOUDY    29  24  82 NW14      30.03S WCI  18
$$

IAZ001>003-012>014-020>022-031-032-NEZ013-014-SDZ071-141900-
NORTHWEST IOWA

CITY           SKY/WX    TMP DP  RH WIND       PRES   REMARKS
CHEROKEE       CLOUDY    29  27  91 S6        30.05F WCI  23
DENISON        CLOUDY    30  25  80 S5        30.07F WCI  25
ESTHERVILLE    CLOUDY    27  21  78 NW8       30.03S WCI  19
LE MARS        CLOUDY    36  27  69 CALM      30.05F
ORANGE CITY    CLOUDY    34  30  86 W5        30.04S WCI  30
SHELDON        CLOUDY    30  28  93 CALM      30.03S
SIOUX CITY     CLOUDY    37  27  67 N7        30.06F
6HR MIN TEMP:  29; 6HR MAX TEMP:  38;

SPENCER        CLOUDY    28  21  75 W8        30.05S WCI  20
6HR MIN TEMP:  23; 6HR MAX TEMP:  28;

STORM LAKE     CLOUDY    28  23  80 SW8       30.03F WCI  20
$$

ABBREVIATIONS USED IN REMARKS
   TC - TEMPERATURE IN CELSIUS
  WCI - WIND CHILL INDEX
   HX - HEAT INDEX
  VSB - VISIBILITY





USA.gov is the U.S. government's official web portal to all federal, state and local government web resources and services.